Weather History for Valparaiso, FL

Change the Weather History Date:

Tuesday, October 30, 2012

  Actual Average Record
Temperature  
Mean Temperature 53 °F -  
Max Temperature 66 °F 75 °F 86 °F (1951)
Min Temperature 40 °F 50 °F 27 °F (1952)
Degree Days  
Heating Degree Days 12    
Growing Degree Days 3 (Base 50)    
Moisture  
Dew Point 31 °F    
Average Humidity 47    
Maximum Humidity 71    
Minimum Humidity 25    
Precipitation  
Precipitation 0.00 in - - ()
Sea Level Pressure  
Sea Level Pressure 29.99 in    
Wind  
Wind Speed 12 mph (WNW)    
Max Wind Speed 21 mph    
Max Gust Speed 29 mph    
Visibility 10 miles    
Events      
Averages and records for this station are not official NWS values.
T = Trace of Precipitation, MM = Missing Value Source: NWS Daily Summary

Daily Weather History Graph

Daily Weather History Graph

Search for Another Location

Airport:

Trip Planner

Search our weather history database for the weather conditions in past years. The results will help you decide how hot, cold, wet, or windy it might be!

Date:

Astronomy

Oct. 30, 2012 Rise Set
Actual Time 6:59 AM CDT 5:59 PM CDT
Civil Twilight 6:34 AM CDT 6:24 PM CDT
Nautical Twilight 6:06 AM CDT 6:52 PM CDT
Astronomical Twilight 5:38 AM CDT 7:20 PM CDT
Moon 6:34 PM CDT (10/30) 7:40 AM CDT (10/30)
Length of Visible Light 11h 49m
Length of Day
11h 00m
Full, 99% of the Moon is Illuminated
Oct 30
Full
Nov 6
Last Quarter
Nov 13
New
Nov 20
First Quarter
Nov 28
Full

Hourly Weather History & Observations

Time (CDT) Temp. Windchill Dew Point Humidity Pressure Visibility Wind Dir Wind Speed Gust Speed Precip Events Conditions
12:57 AM 47.1 °F - 30.2 °F 52% 30.01 in 10.0 mi NW 9.2 mph - N/A   Clear
1:56 AM 44.1 °F 39.0 °F 30.9 °F 60% 30.00 in 10.0 mi WNW 9.2 mph - N/A   Clear
2:58 AM 41.9 °F 35.9 °F 31.5 °F 66% 29.99 in 10.0 mi WNW 10.4 mph - N/A   Clear
3:56 AM 42.4 °F 36.1 °F 31.1 °F 64% 29.99 in 10.0 mi WNW 11.5 mph - N/A   Clear
4:55 AM 42.4 °F 36.1 °F 30.9 °F 64% 29.99 in 10.0 mi WNW 11.5 mph - N/A   Clear
5:55 AM 41.4 °F 34.7 °F 31.6 °F 68% 30.00 in 10.0 mi WNW 11.5 mph - N/A   Clear
6:57 AM 40.6 °F 33.8 °F 31.8 °F 71% 30.02 in 10.0 mi WNW 11.5 mph - N/A   Clear
7:55 AM 43.3 °F 37.2 °F 30.7 °F 61% 30.03 in 10.0 mi NW 11.5 mph - N/A   Clear
8:55 AM 48.7 °F - 29.7 °F 48% 30.02 in 10.0 mi NW 15.0 mph 20.7 mph N/A   Partly Cloudy
9:55 AM 53.8 °F - 27.3 °F 36% 30.02 in 10.0 mi NW 15.0 mph 21.9 mph N/A   Partly Cloudy
10:55 AM 58.1 °F - 25.9 °F 29% 30.01 in 10.0 mi NW 17.3 mph 23.0 mph N/A   Partly Cloudy
11:55 AM 61.3 °F - 25.0 °F 25% 30.00 in 10.0 mi NW 16.1 mph 23.0 mph N/A   Partly Cloudy
12:55 PM 63.3 °F - 26.2 °F 25% 29.97 in 10.0 mi NW 18.4 mph - N/A   Partly Cloudy
1:55 PM 64.8 °F - 27.7 °F 25% 29.95 in 10.0 mi NW 20.7 mph 26.5 mph N/A   Partly Cloudy
2:55 PM 66.0 °F - 28.6 °F 25% 29.94 in 10.0 mi NW 17.3 mph 28.8 mph N/A   Partly Cloudy
3:55 PM 66.2 °F - 29.1 °F 25% 29.92 in 10.0 mi NW 19.6 mph 23.0 mph N/A   Partly Cloudy
4:57 PM 65.3 °F - 29.8 °F 26% 29.92 in 10.0 mi WNW 15.0 mph 20.7 mph N/A   Partly Cloudy
5:55 PM 61.7 °F - 31.5 °F 32% 29.93 in 10.0 mi WNW 10.4 mph - N/A   Partly Cloudy
6:57 PM 54.7 °F - 33.3 °F 44% 29.95 in 10.0 mi WNW 6.9 mph - N/A   Partly Cloudy
7:58 PM 53.1 °F - 33.3 °F 47% 29.97 in 10.0 mi West 4.6 mph - N/A   Partly Cloudy
8:57 PM 51.3 °F - 33.8 °F 51% 29.99 in 10.0 mi WNW 6.9 mph - N/A   Partly Cloudy
9:55 PM 50.4 °F - 34.5 °F 55% 30.01 in 10.0 mi West 5.8 mph - N/A   Mostly Cloudy
10:55 PM 46.8 °F - 34.9 °F 63% 30.01 in 10.0 mi West 6.9 mph - N/A   Mostly Cloudy
11:55 PM 46.6 °F - 35.2 °F 65% 30.00 in 10.0 mi West 6.9 mph - N/A   Partly Cloudy